| time (UTC) | temp F | wind direction | speed knots | gust knots | rain 1hr in | rain 24hr in | rain mn in | humidity % | barometer mb |
| 20260508044104 | 48 | 282 | 3.5 | 6.1 | 0.00 | 0.00 | 0.00 | 65 | |
| 20260508043604 | 48 | 250 | 4.3 | 4.3 | 0.00 | 0.00 | 0.00 | 60 | |
| 20260508043104 | 49 | 225 | 1.7 | 3.5 | 0.00 | 0.00 | 0.00 | 58 | |
| 20260508042604 | 50 | 253 | 0.0 | 0.0 | 0.00 | 0.00 | 0.00 | 54 | |
| 20260508042104 | 50 | 253 | 0.0 | 0.0 | 0.00 | 0.00 | 0.00 | 54 | |
| 20260508041604 | 51 | 253 | 0.0 | 0.0 | 0.00 | 0.00 | 0.00 | 53 | |
| 20260508041104 | 51 | 253 | 0.0 | 3.5 | 0.00 | 0.00 | 0.00 | 51 | |
| 20260508040604 | 52 | 226 | 2.6 | 7.0 | 0.00 | 0.00 | 0.00 | 51 | |
| 20260508040104 | 53 | 21 | 4.3 | 7.0 | 0.00 | 0.00 | 0.00 | 47 | |
| 20260508035604 | 53 | 33 | 1.7 | 8.7 | 0.00 | 0.00 | 0.00 | 46 | |
| 20260508035104 | 53 | 341 | 6.1 | 8.7 | 0.00 | 0.00 | 0.00 | 47 | |
| 20260508034604 | 53 | 19 | 3.5 | 6.1 | 0.00 | 0.00 | 0.00 | 46 | |
| 20260508034104 | 53 | 355 | 2.6 | 4.3 | 0.00 | 0.00 | 0.00 | 47 | |
| 20260508033604 | 53 | 334 | 0.0 | 10.4 | 0.00 | 0.00 | 0.00 | 47 | |
| 20260508033104 | 53 | 336 | 7.0 | 10.4 | 0.00 | 0.00 | 0.00 | 48 | |
| 20260508032604 | 53 | 316 | 0.0 | 0.0 | 0.00 | 0.00 | 0.00 | 50 | |
| 20260508032104 | 53 | 316 | 0.0 | 0.0 | 0.00 | 0.00 | 0.00 | 48 | |
| 20260508031604 | 53 | 316 | 0.0 | 0.0 | 0.00 | 0.00 | 0.00 | 48 | |
| 20260508031104 | 53 | 316 | 0.0 | 0.0 | 0.00 | 0.00 | 0.00 | 48 | |
| 20260508030604 | 53 | 316 | 0.0 | 3.5 | 0.00 | 0.00 | 0.00 | 47 | |
| 20260508030104 | 53 | 282 | 2.6 | 5.2 | 0.00 | 0.00 | 0.00 | 46 | |
| 20260508025604 | 53 | 278 | 3.5 | 6.1 | 0.00 | 0.00 | 0.00 | 47 | |
| 20260508025104 | 54 | 272 | 4.3 | 8.7 | 0.00 | 0.00 | 0.00 | 47 | |
| 20260508024604 | 54 | 260 | 7.0 | 10.4 | 0.00 | 0.00 | 0.00 | 46 | |
| 20260508024104 | 54 | 260 | 4.3 | 8.7 | 0.00 | 0.00 | 0.00 | 45 | |
| 20260508023604 | 55 | 272 | 4.3 | 7.8 | 0.00 | 0.00 | 0.00 | 44 | |
| 20260508023104 | 55 | 293 | 4.3 | 8.7 | 0.00 | 0.00 | 0.00 | 43 | |
| 20260508022604 | 55 | 282 | 7.0 | 13.0 | 0.00 | 0.00 | 0.00 | 41 | |
| 20260508022104 | 55 | 258 | 5.2 | 14.8 | 0.00 | 0.00 | 0.00 | 42 | |
| 20260508021604 | 55 | 275 | 7.8 | 9.6 | 0.00 | 0.00 | 0.00 | 40 | |
| 20260508021104 | 56 | 291 | 5.2 | 11.3 | 0.00 | 0.00 | 0.00 | 41 | |
| 20260508020604 | 56 | 278 | 5.2 | 10.4 | 0.00 | 0.00 | 0.00 | 40 | |
| 20260508020104 | 55 | 291 | 9.6 | 9.6 | 0.00 | 0.00 | 0.00 | 39 | |
| 20260508015604 | 56 | 295 | 5.2 | 10.4 | 0.00 | 0.00 | 0.00 | 39 | |
| 20260508015104 | 56 | 305 | 6.1 | 10.4 | 0.00 | 0.00 | 0.00 | 40 | |
| 20260508014604 | 56 | 271 | 7.0 | 12.2 | 0.00 | 0.00 | 0.00 | 39 | |
| 20260508014104 | 56 | 323 | 2.6 | 5.2 | 0.00 | 0.00 | 0.00 | 38 | |
| 20260508013604 | 57 | 319 | 0.0 | 2.6 | 0.00 | 0.00 | 0.00 | 40 | |
| 20260508013104 | 57 | 338 | 0.9 | 3.5 | 0.00 | 0.00 | 0.00 | 38 | |
| 20260508012604 | 57 | 324 | 2.6 | 6.1 | 0.00 | 0.00 | 0.00 | 38 | |
| 20260508012104 | 57 | 306 | 2.6 | 6.1 | 0.00 | 0.00 | 0.00 | 38 | |
| 20260508011604 | 57 | 295 | 6.1 | 8.7 | 0.00 | 0.00 | 0.00 | 38 | |
| 20260508011104 | 57 | 289 | 6.1 | 10.4 | 0.00 | 0.00 | 0.00 | 37 | |
| 20260508010604 | 56 | 281 | 5.2 | 13.0 | 0.00 | 0.00 | 0.00 | 36 | |
| 20260508010104 | 57 | 285 | 9.6 | 13.9 | 0.00 | 0.00 | 0.00 | 37 | |
| 20260508005604 | 57 | 279 | 9.6 | 13.0 | 0.00 | 0.00 | 0.00 | 37 | |
| 20260508005104 | 57 | 261 | 7.8 | 11.3 | 0.00 | 0.00 | 0.00 | 38 | |
| 20260508004604 | 57 | 275 | 8.7 | 14.8 | 0.00 | 0.00 | 0.00 | 36 | |
| 20260508004104 | 57 | 282 | 7.8 | 13.9 | 0.00 | 0.00 | 0.00 | 36 | |
| 20260508003604 | 57 | 265 | 7.0 | 12.2 | 0.00 | 0.00 | 0.00 | 37 | |
| 20260508003104 | 57 | 277 | 7.8 | 13.9 | 0.00 | 0.00 | 0.00 | 37 | |
| 20260508002604 | 57 | 282 | 10.4 | 13.9 | 0.00 | 0.00 | 0.00 | 38 | |
| 20260508002104 | 58 | 264 | 8.7 | 16.5 | 0.00 | 0.00 | 0.00 | 36 | |
| 20260508001604 | 59 | 241 | 8.7 | 15.6 | 0.00 | 0.00 | 0.00 | 37 | |
| 20260508001104 | 60 | 246 | 8.7 | 13.9 | 0.00 | 0.00 | 0.00 | 34 | |
| 20260508000604 | 59 | 305 | 5.2 | 12.2 | 0.00 | 0.00 | 0.00 | 30 | |
| 20260508000104 | 60 | 272 | 7.0 | 15.6 | 0.00 | 0.00 | 0.00 | 31 | |
| 20260507235604 | 60 | 305 | 6.1 | 13.9 | 0.00 | 0.00 | 0.00 | 29 | |
| 20260507235104 | 60 | 317 | 3.5 | 11.3 | 0.00 | 0.00 | 0.00 | 29 | |
| 20260507234604 | 60 | 302 | 3.5 | 11.3 | 0.00 | 0.00 | 0.00 | 30 | |
| 20260507234104 | 59 | 285 | 7.0 | 13.9 | 0.00 | 0.00 | 0.00 | 29 | |
| 20260507233604 | 60 | 341 | 2.6 | 8.7 | 0.00 | 0.00 | 0.00 | 29 | |
| 20260507233104 | 60 | 288 | 3.5 | 13.0 | 0.00 | 0.00 | 0.00 | 30 | |
| 20260507232604 | 59 | 289 | 7.8 | 9.6 | 0.00 | 0.00 | 0.00 | 33 | |
| 20260507232104 | 60 | 275 | 7.0 | 9.6 | 0.00 | 0.00 | 0.00 | 31 | |
| 20260507231604 | 60 | 296 | 5.2 | 13.0 | 0.00 | 0.00 | 0.00 | 31 | |
| 20260507231104 | 60 | 310 | 7.0 | 14.8 | 0.00 | 0.00 | 0.00 | 32 | |
| 20260507230604 | 59 | 331 | 3.5 | 10.4 | 0.00 | 0.00 | 0.00 | 32 | |
| 20260507230104 | 59 | 329 | 7.8 | 14.8 | 0.00 | 0.00 | 0.00 | 31 | |
| 20260507225604 | 59 | 331 | 9.6 | 14.8 | 0.00 | 0.00 | 0.00 | 30 | |
| 20260507225104 | 61 | 320 | 5.2 | 14.8 | 0.00 | 0.00 | 0.00 | 29 | |
| 20260507224604 | 61 | 285 | 7.0 | 11.3 | 0.00 | 0.00 | 0.00 | 29 | |
| 20260507224104 | 61 | 338 | 4.3 | 13.0 | 0.00 | 0.00 | 0.00 | 27 | |
| 20260507223604 | 61 | 336 | 7.0 | 14.8 | 0.00 | 0.00 | 0.00 | 30 | |
| 20260507223104 | 60 | 326 | 6.1 | 19.1 | 0.00 | 0.00 | 0.00 | 29 | |
| 20260507222604 | 59 | 292 | 14.8 | 20.0 | 0.00 | 0.00 | 0.00 | 29 | |
| 20260507222104 | 60 | 324 | 5.2 | 22.6 | 0.00 | 0.00 | 0.00 | 29 | |
| 20260507221604 | 60 | 305 | 9.6 | 21.7 | 0.00 | 0.00 | 0.00 | 30 | |
| 20260507221104 | 60 | 277 | 7.8 | 13.9 | 0.00 | 0.00 | 0.00 | 31 | |
| 20260507220604 | 60 | 291 | 11.3 | 15.6 | 0.00 | 0.00 | 0.00 | 31 | |
| 20260507220104 | 62 | 300 | 4.3 | 12.2 | 0.00 | 0.00 | 0.00 | 30 | |
| 20260507215604 | 62 | 299 | 7.8 | 13.9 | 0.00 | 0.00 | 0.00 | 29 | |
| 20260507215104 | 61 | 295 | 8.7 | 12.2 | 0.00 | 0.00 | 0.00 | 30 | |
| 20260507214604 | 62 | 307 | 7.8 | 9.6 | 0.00 | 0.00 | 0.00 | 30 | |
| 20260507214104 | 61 | 292 | 7.8 | 12.2 | 0.00 | 0.00 | 0.00 | 30 | |
| 20260507213604 | 61 | 258 | 6.1 | 11.3 | 0.00 | 0.00 | 0.00 | 33 | |
| 20260507213104 | 60 | 223 | 0.9 | 7.8 | 0.00 | 0.00 | 0.00 | 36 | |
| 20260507212604 | 60 | 203 | 4.3 | 10.4 | 0.00 | 0.00 | 0.00 | 35 | |
| 20260507212104 | 59 | 262 | 7.8 | 8.7 | 0.00 | 0.00 | 0.00 | 38 | |
| 20260507211604 | 59 | 185 | 0.0 | 7.0 | 0.00 | 0.00 | 0.00 | 36 | |
| 20260507211104 | 58 | 261 | 5.2 | 10.4 | 0.00 | 0.00 | 0.00 | 38 | |
| 20260507210604 | 58 | 225 | 5.2 | 7.8 | 0.00 | 0.00 | 0.00 | 38 | |
| 20260507210104 | 58 | 185 | 6.1 | 8.7 | 0.00 | 0.00 | 0.00 | 38 | |
| 20260507205604 | 58 | 222 | 7.0 | 7.8 | 0.00 | 0.00 | 0.00 | 38 | |
| 20260507205104 | 57 | 212 | 6.1 | 9.6 | 0.00 | 0.00 | 0.00 | 38 | |
| 20260507204604 | 57 | 206 | 7.8 | 9.6 | 0.00 | 0.00 | 0.00 | 37 | |
| 20260507204104 | 58 | 230 | 3.5 | 8.7 | 0.00 | 0.00 | 0.00 | 37 | |
| 20260507203604 | 59 | 222 | 7.0 | 7.0 | 0.00 | 0.00 | 0.00 | 37 | |
| 20260507203104 | 59 | 258 | 0.0 | 2.6 | 0.00 | 0.00 | 0.00 | 37 | |
| 20260507202604 | 58 | 275 | 2.6 | 5.2 | 0.00 | 0.00 | 0.00 | 37 | |
| 20260507202104 | 58 | 232 | 0.0 | 4.3 | 0.00 | 0.00 | 0.00 | 38 | |
| 20260507201604 | 57 | 247 | 3.5 | 4.3 | 0.00 | 0.00 | 0.00 | 39 | |
| 20260507201104 | 57 | 206 | 1.7 | 6.1 | 0.00 | 0.00 | 0.00 | 37 | |
| 20260507200604 | 58 | 267 | 0.9 | 6.1 | 0.00 | 0.00 | 0.00 | 39 | |
| 20260507200104 | 58 | 182 | 0.0 | 5.2 | 0.00 | 0.00 | 0.00 | 37 | |
| 20260507195604 | 58 | 35 | 0.9 | 4.3 | 0.00 | 0.00 | 0.00 | 38 | |
| 20260507195104 | 57 | 329 | 0.9 | 7.8 | 0.00 | 0.00 | 0.00 | 43 | |
| 20260507194604 | 57 | 275 | 0.0 | 0.0 | 0.00 | 0.00 | 0.00 | 40 | |
| 20260507194104 | 57 | 275 | 0.0 | 7.0 | 0.00 | 0.00 | 0.00 | 40 | |
| 20260507193604 | 57 | 177 | 1.7 | 7.0 | 0.00 | 0.00 | 0.00 | 39 | |
| 20260507193104 | 56 | 140 | 5.2 | 9.6 | 0.00 | 0.00 | 0.00 | 39 | |
| 20260507192604 | 56 | 172 | 2.6 | 7.0 | 0.00 | 0.00 | 0.00 | 40 | |
| 20260507192104 | 57 | 199 | 2.6 | 11.3 | 0.00 | 0.00 | 0.00 | 41 | |
| 20260507191604 | 56 | 185 | 11.3 | 11.3 | 0.00 | 0.00 | 0.00 | 39 | |
| 20260507191104 | 56 | 184 | 0.0 | 4.3 | 0.00 | 0.00 | 0.00 | 40 | |
| 20260507190604 | 56 | 216 | 3.5 | 7.0 | 0.00 | 0.00 | 0.00 | 43 | |
| 20260507190105 | 55 | 265 | 3.5 | 7.0 | 0.00 | 0.00 | 0.00 | 42 | |
| 20260507185604 | 55 | 181 | 5.2 | 7.8 | 0.00 | 0.00 | 0.00 | 41 | |
| 20260507185105 | 54 | 180 | 1.7 | 7.8 | 0.00 | 0.00 | 0.00 | 41 | |
| 20260507184604 | 54 | 187 | 5.2 | 7.8 | 0.00 | 0.00 | 0.00 | 41 | |
| 20260507184105 | 54 | 140 | 0.0 | 6.1 | 0.00 | 0.00 | 0.00 | 43 | |
| 20260507183605 | 53 | 87 | 4.3 | 8.7 | 0.00 | 0.00 | 0.00 | 42 | |
| 20260507183105 | 54 | 188 | 6.1 | 7.8 | 0.00 | 0.00 | 0.00 | 45 | |
| 20260507182605 | 53 | 132 | 2.6 | 10.4 | 0.00 | 0.00 | 0.00 | 43 | |
| 20260507182105 | 53 | 216 | 6.1 | 7.0 | 0.00 | 0.00 | 0.00 | 44 | |
| 20260507181605 | 52 | 140 | 5.2 | 7.8 | 0.00 | 0.00 | 0.00 | 43 | |
| 20260507181105 | 52 | 126 | 7.0 | 8.7 | 0.00 | 0.00 | 0.00 | 43 | |
| 20260507180605 | 52 | 174 | 5.2 | 8.7 | 0.00 | 0.00 | 0.00 | 46 | |
| 20260507180105 | 52 | 229 | 2.6 | 9.6 | 0.00 | 0.00 | 0.00 | 45 | |
| 20260507175605 | 52 | 165 | 6.1 | 10.4 | 0.00 | 0.00 | 0.00 | 44 | |
| 20260507175105 | 51 | 181 | 8.7 | 11.3 | 0.00 | 0.00 | 0.00 | 44 | |
| 20260507174605 | 52 | 123 | 3.5 | 8.7 | 0.00 | 0.00 | 0.00 | 44 | |
| 20260507174105 | 50 | 182 | 4.3 | 10.4 | 0.00 | 0.00 | 0.00 | 44 | |
| 20260507173605 | 50 | 130 | 2.6 | 7.8 | 0.00 | 0.00 | 0.00 | 46 | |
| 20260507173105 | 50 | 135 | 4.3 | 9.6 | 0.00 | 0.00 | 0.00 | 44 | |
| 20260507172605 | 50 | 161 | 9.6 | 9.6 | 0.00 | 0.00 | 0.00 | 45 | |
| 20260507172105 | 49 | 202 | 5.2 | 8.7 | 0.00 | 0.00 | 0.00 | 46 | |
| 20260507171605 | 48 | 226 | 3.5 | 7.8 | 0.00 | 0.00 | 0.00 | 46 | |
| 20260507171105 | 48 | 206 | 6.1 | 7.8 | 0.00 | 0.00 | 0.00 | 49 | |
| 20260507170605 | 47 | 194 | 6.1 | 7.8 | 0.00 | 0.00 | 0.00 | 48 | |
| 20260507170105 | 47 | 241 | 2.6 | 7.8 | 0.00 | 0.00 | 0.00 | 50 | |
| 20260507165605 | 47 | 216 | 5.2 | 6.1 | 0.00 | 0.00 | 0.00 | 48 | |
| 20260507165105 | 47 | 127 | 5.2 | 6.1 | 0.00 | 0.00 | 0.00 | 48 | |
| 20260507164605 | 46 | 151 | 0.9 | 6.1 | 0.00 | 0.00 | 0.00 | 49 | |
| 20260507164105 | 46 | 160 | 3.5 | 6.1 | 0.00 | 0.00 | 0.00 | 49 | |
| 20260507163605 | 46 | 167 | 0.0 | 5.2 | 0.00 | 0.00 | 0.00 | 51 | |
| 20260507163105 | 45 | 172 | 0.0 | 5.2 | 0.00 | 0.00 | 0.00 | 52 | |
| 20260507162605 | 44 | 217 | 3.5 | 5.2 | 0.00 | 0.02 | 0.00 | 53 | |
| 20260507162105 | 45 | 178 | 1.7 | 6.1 | 0.00 | 0.02 | 0.00 | 54 | |
| 20260507161605 | 44 | 213 | 0.0 | 3.5 | 0.00 | 0.02 | 0.00 | 54 | |
| 20260507161105 | 44 | 195 | 0.0 | 0.9 | 0.00 | 0.02 | 0.00 | 55 | |
| 20260507160605 | 43 | 253 | 0.0 | 4.3 | 0.00 | 0.02 | 0.00 | 54 | |
| 20260507160105 | 43 | 226 | 3.5 | 3.5 | 0.00 | 0.02 | 0.00 | 53 | |
| 20260507155605 | 42 | 171 | 0.0 | 5.2 | 0.00 | 0.02 | 0.00 | 54 | |
| 20260507155105 | 42 | 39 | 0.0 | 4.3 | 0.00 | 0.02 | 0.00 | 53 | |
| 20260507154605 | 42 | 158 | 2.6 | 4.3 | 0.00 | 0.02 | 0.00 | 55 | |
| 20260507154105 | 42 | 108 | 0.0 | 4.3 | 0.00 | 0.02 | 0.00 | 55 | |
| 20260507153605 | 41 | 146 | 0.0 | 4.3 | 0.00 | 0.02 | 0.00 | 56 | |
| 20260507153105 | 40 | 150 | 0.0 | 2.6 | 0.00 | 0.02 | 0.00 | 56 | |
| 20260507152605 | 40 | 192 | 0.0 | 3.5 | 0.00 | 0.12 | 0.00 | 58 | |
| 20260507152105 | 40 | 194 | 0.0 | 0.0 | 0.00 | 0.12 | 0.00 | 59 | |
| 20260507151605 | 40 | 194 | 0.0 | 0.0 | 0.00 | 0.12 | 0.00 | 58 | |
| 20260507151105 | 39 | 194 | 0.0 | 1.7 | 0.00 | 0.12 | 0.00 | 58 | |
| 20260507150605 | 39 | 234 | 0.0 | 0.0 | 0.00 | 0.12 | 0.00 | 58 | |
| 20260507150105 | 38 | 234 | 0.0 | 0.9 | 0.00 | 0.12 | 0.00 | 59 | |
| 20260507145605 | 38 | 171 | 0.0 | 0.0 | 0.00 | 0.12 | 0.00 | 64 | |
| 20260507145105 | 37 | 171 | 0.0 | 0.0 | 0.00 | 0.12 | 0.00 | 64 | |
| 20260507144605 | 36 | 171 | 0.0 | 0.0 | 0.00 | 0.12 | 0.00 | 65 | |
| 20260507144105 | 36 | 171 | 0.0 | 0.0 | 0.00 | 0.12 | 0.00 | 66 | |
| 20260507143605 | 36 | 171 | 0.0 | 0.0 | 0.00 | 0.12 | 0.00 | 67 | |
| 20260507143105 | 36 | 171 | 0.0 | 0.0 | 0.00 | 0.12 | 0.00 | 68 | |
| 20260507142605 | 36 | 171 | 0.0 | 0.0 | 0.00 | 0.15 | 0.00 | 69 | |
| 20260507142105 | 35 | 171 | 0.0 | 0.0 | 0.00 | 0.15 | 0.00 | 70 | |
| 20260507141605 | 35 | 171 | 0.0 | 0.0 | 0.00 | 0.15 | 0.00 | 70 | |
| 20260507141105 | 34 | 171 | 0.0 | 0.0 | 0.00 | 0.15 | 0.00 | 71 | |
| 20260507140605 | 33 | 149 | 0.0 | 0.0 | 0.00 | 0.15 | 0.00 | 74 | |
| 20260507140105 | 33 | 149 | 0.0 | 2.6 | 0.00 | 0.15 | 0.00 | 75 | |
| 20260507135605 | 32 | 319 | 0.0 | 0.0 | 0.00 | 0.15 | 0.00 | 76 | |
| 20260507135105 | 32 | 319 | 0.0 | 0.0 | 0.00 | 0.15 | 0.00 | 77 | |
| 20260507134605 | 31 | 319 | 0.0 | 0.0 | 0.00 | 0.15 | 0.00 | 79 | |
| 20260507134105 | 31 | 319 | 0.0 | 0.0 | 0.00 | 0.15 | 0.00 | 80 | |
| 20260507133605 | 30 | 319 | 0.0 | 0.0 | 0.00 | 0.15 | 0.00 | 81 | |
| 20260507133105 | 29 | 319 | 0.0 | 0.0 | 0.00 | 0.15 | 0.00 | 83 | |
| 20260507132605 | 29 | 319 | 0.0 | 0.0 | 0.00 | 0.15 | 0.00 | 84 | |
| 20260507132105 | 28 | 319 | 0.0 | 0.0 | 0.00 | 0.15 | 0.00 | 86 | |
| 20260507131605 | 27 | 319 | 0.0 | 0.0 | 0.00 | 0.15 | 0.00 | 87 | |
| 20260507131105 | 27 | 319 | 0.0 | 0.0 | 0.00 | 0.15 | 0.00 | 85 | |
| 20260507130605 | 27 | 319 | 0.0 | 0.0 | 0.00 | 0.15 | 0.00 | 85 | |
| 20260507130105 | 27 | 319 | 0.0 | 0.0 | 0.00 | 0.15 | 0.00 | 84 | |
| 20260507125605 | 27 | 319 | 0.0 | 0.0 | 0.00 | 0.15 | 0.00 | 84 | |
| 20260507125105 | 27 | 319 | 0.0 | 0.0 | 0.00 | 0.15 | 0.00 | 84 | |
| 20260507124605 | 27 | 319 | 0.0 | 2.6 | 0.00 | 0.15 | 0.00 | 85 | |
| 20260507124105 | 26 | 289 | 2.6 | 2.6 | 0.00 | 0.15 | 0.00 | 86 | |
| 20260507123605 | 26 | 299 | 0.0 | 4.3 | 0.00 | 0.15 | 0.00 | 87 | |
| 20260507123105 | 26 | 292 | 3.5 | 3.5 | 0.00 | 0.15 | 0.00 | 88 | |
| 20260507122605 | 26 | 296 | 0.0 | 1.7 | 0.00 | 0.17 | 0.00 | 89 | |
| 20260507122105 | 25 | 310 | 0.0 | 1.7 | 0.00 | 0.17 | 0.00 | 90 | |
| 20260507121605 | 25 | 296 | 0.9 | 2.6 | 0.00 | 0.17 | 0.00 | 91 | |
| 20260507121105 | 25 | 101 | 0.0 | 0.0 | 0.00 | 0.17 | 0.00 | 90 | |
| 20260507120605 | 25 | 101 | 0.0 | 0.0 | 0.00 | 0.17 | 0.00 | 89 | |
| 20260507120105 | 25 | 101 | 0.0 | 0.0 | 0.00 | 0.17 | 0.00 | 88 | |
| 20260507115605 | 25 | 101 | 0.0 | 0.0 | 0.00 | 0.17 | 0.00 | 87 | |
| 20260507115105 | 25 | 101 | 0.0 | 0.0 | 0.00 | 0.17 | 0.00 | 88 | |
| 20260507114605 | 25 | 101 | 0.0 | 0.0 | 0.00 | 0.17 | 0.00 | 88 | |
| 20260507114105 | 25 | 101 | 0.0 | 0.0 | 0.00 | 0.17 | 0.00 | 88 | |
| 20260507113605 | 25 | 101 | 0.0 | 0.0 | 0.00 | 0.17 | 0.00 | 87 | |
| 20260507113105 | 25 | 101 | 0.0 | 0.0 | 0.00 | 0.17 | 0.00 | 87 | |
| 20260507112605 | 26 | 101 | 0.0 | 0.0 | 0.00 | 0.17 | 0.00 | 87 | |
| 20260507112105 | 26 | 101 | 0.0 | 0.0 | 0.00 | 0.17 | 0.00 | 87 | |
| 20260507111605 | 27 | 101 | 0.0 | 0.0 | 0.00 | 0.17 | 0.00 | 86 | |
| 20260507111105 | 27 | 101 | 0.0 | 0.0 | 0.00 | 0.17 | 0.00 | 86 | |
| 20260507110605 | 27 | 101 | 0.0 | 0.0 | 0.00 | 0.17 | 0.00 | 86 | |
| 20260507110105 | 27 | 101 | 0.0 | 0.0 | 0.00 | 0.17 | 0.00 | 86 | |
| 20260507105605 | 27 | 101 | 0.0 | 1.7 | 0.00 | 0.17 | 0.00 | 85 | |
| 20260507105105 | 27 | 129 | 0.9 | 3.5 | 0.00 | 0.17 | 0.00 | 86 | |
| 20260507104606 | 27 | 85 | 1.7 | 1.7 | 0.00 | 0.17 | 0.00 | 85 | |
| 20260507104105 | 27 | 119 | 0.0 | 0.9 | 0.00 | 0.17 | 0.00 | 83 | |
| 20260507103605 | 27 | 40 | 0.0 | 0.0 | 0.00 | 0.17 | 0.00 | 82 | |
| 20260507103105 | 28 | 40 | 0.0 | 0.0 | 0.00 | 0.17 | 0.00 | 81 | |
| 20260507102605 | 28 | 40 | 0.0 | 1.7 | 0.00 | 0.24 | 0.00 | 80 | |
| 20260507102105 | 28 | 53 | 0.0 | 2.6 | 0.00 | 0.24 | 0.00 | 80 | |
| 20260507101605 | 29 | 220 | 0.0 | 2.6 | 0.00 | 0.24 | 0.00 | 78 | |
| 20260507101105 | 28 | 177 | 0.9 | 6.1 | 0.00 | 0.24 | 0.00 | 78 | |
| 20260507100605 | 30 | 191 | 3.5 | 3.5 | 0.00 | 0.24 | 0.00 | 73 | |
| 20260507100105 | 32 | 237 | 0.0 | 0.0 | 0.00 | 0.24 | 0.00 | 71 | |
| 20260507095605 | 31 | 237 | 0.0 | 2.6 | 0.00 | 0.24 | 0.00 | 70 | |
| 20260507095105 | 31 | 251 | 0.9 | 4.3 | 0.00 | 0.24 | 0.00 | 72 | |
| 20260507094605 | 31 | 278 | 2.6 | 4.3 | 0.00 | 0.24 | 0.00 | 72 | |
| 20260507094105 | 30 | 316 | 0.0 | 4.3 | 0.00 | 0.24 | 0.00 | 74 | |
| 20260507093605 | 29 | 300 | 0.0 | 1.7 | 0.00 | 0.24 | 0.00 | 79 | |
| 20260507093105 | 29 | 300 | 0.9 | 3.5 | 0.00 | 0.24 | 0.00 | 81 | |
| 20260507092605 | 29 | 212 | 0.0 | 0.0 | 0.00 | 0.27 | 0.00 | 80 | |
| 20260507092105 | 30 | 212 | 0.0 | 4.3 | 0.00 | 0.27 | 0.00 | 77 | |
| 20260507091605 | 30 | 302 | 1.7 | 6.1 | 0.00 | 0.27 | 0.00 | 76 | |
| 20260507091105 | 31 | 298 | 0.0 | 3.5 | 0.00 | 0.27 | 0.00 | 77 | |
| 20260507090605 | 32 | 309 | 0.0 | 0.0 | 0.00 | 0.27 | 0.00 | 74 | |
| 20260507090106 | 32 | 309 | 0.0 | 0.0 | 0.00 | 0.27 | 0.00 | 70 | |
| 20260507085605 | 32 | 309 | 0.0 | 4.3 | 0.00 | 0.27 | 0.00 | 69 | |
| 20260507085105 | 33 | 303 | 3.5 | 6.1 | 0.00 | 0.27 | 0.00 | 70 | |
| 20260507084605 | 32 | 302 | 3.5 | 7.8 | 0.00 | 0.27 | 0.00 | 69 | |
| 20260507084105 | 32 | 302 | 6.1 | 7.0 | 0.00 | 0.27 | 0.00 | 70 | |
| 20260507083605 | 33 | 303 | 4.3 | 8.7 | 0.00 | 0.27 | 0.00 | 69 | |
| 20260507083105 | 34 | 296 | 6.1 | 7.8 | 0.00 | 0.27 | 0.00 | 66 | |
| 20260507082606 | 34 | 312 | 2.6 | 11.3 | 0.00 | 0.28 | 0.00 | 65 | |
| 20260507082105 | 34 | 309 | 1.7 | 11.3 | 0.00 | 0.28 | 0.00 | 64 | |
| 20260507081605 | 34 | 326 | 6.1 | 14.8 | 0.00 | 0.28 | 0.00 | 63 | |
| 20260507081106 | 34 | 322 | 8.7 | 10.4 | 0.00 | 0.28 | 0.00 | 64 | |
| 20260507080606 | 34 | 329 | 4.3 | 9.6 | 0.00 | 0.28 | 0.00 | 66 | |
| 20260507080106 | 33 | 279 | 8.7 | 8.7 | 0.00 | 0.28 | 0.00 | 68 | |
| 20260507075605 | 34 | 282 | 1.7 | 7.0 | 0.00 | 0.28 | 0.00 | 69 | |
| 20260507075106 | 34 | 305 | 1.7 | 10.4 | 0.00 | 0.28 | 0.00 | 66 | |
| 20260507074606 | 34 | 334 | 6.1 | 7.8 | 0.00 | 0.28 | 0.00 | 66 | |
| 20260507074106 | 34 | 19 | 0.0 | 1.7 | 0.00 | 0.28 | 0.00 | 65 | |
| 20260507073606 | 34 | 298 | 0.0 | 0.0 | 0.00 | 0.28 | 0.00 | 67 | |
| 20260507073106 | 34 | 298 | 0.0 | 0.0 | 0.00 | 0.28 | 0.00 | 69 | |
| 20260507072606 | 34 | 298 | 0.0 | 4.3 | 0.00 | 0.28 | 0.00 | 67 | |
| 20260507072106 | 34 | 336 | 2.6 | 5.2 | 0.00 | 0.28 | 0.00 | 68 | |
| 20260507071606 | 34 | 299 | 0.0 | 4.3 | 0.00 | 0.28 | 0.00 | 69 | |
| 20260507071106 | 34 | 323 | 3.5 | 6.1 | 0.00 | 0.28 | 0.00 | 68 | |
| 20260507070606 | 34 | 338 | 4.3 | 5.2 | 0.00 | 0.28 | 0.00 | 66 | |
| 20260507070106 | 34 | 343 | 4.3 | 9.6 | 0.00 | 0.28 | 0.00 | 67 | |
| 20260507065606 | 34 | 358 | 0.0 | 2.6 | 0.00 | 0.28 | 0.00 | 69 | |
| 20260507065106 | 34 | 344 | 2.6 | 3.5 | 0.00 | 0.28 | 0.00 | 70 | |
| 20260507064606 | 34 | 19 | 0.0 | 1.7 | 0.00 | 0.28 | 0.00 | 71 | |
| 20260507064106 | 34 | 4 | 0.9 | 2.6 | 0.00 | 0.28 | 0.00 | 70 | |
| 20260507063606 | 35 | 331 | 0.0 | 0.0 | 0.00 | 0.28 | 0.00 | 69 | |
| 20260507063106 | 35 | 331 | 0.0 | 3.5 | 0.00 | 0.28 | 0.00 | 69 | |
| 20260507062606 | 35 | 341 | 2.6 | 7.0 | 0.00 | 0.28 | 0.00 | 66 | |
| 20260507062106 | 35 | 282 | 0.0 | 6.1 | 0.00 | 0.28 | 0.00 | 66 | |
| 20260507061606 | 35 | 326 | 2.6 | 8.7 | 0.00 | 0.28 | 0.00 | 66 | |
| 20260507061106 | 35 | 293 | 4.3 | 7.0 | 0.00 | 0.28 | 0.00 | 67 | |
| 20260507060606 | 35 | 315 | 1.7 | 7.0 | 0.00 | 0.28 | 0.00 | 66 | |
| 20260507060106 | 35 | 288 | 4.3 | 7.8 | 0.00 | 0.28 | 0.00 | 68 | |
| 20260507055606 | 35 | 285 | 7.0 | 8.7 | 0.00 | 0.28 | 0.00 | 67 | |
| 20260507055106 | 35 | 310 | 4.3 | 7.8 | 0.00 | 0.28 | 0.28 | 69 | |
| 20260507054606 | 35 | 272 | 0.0 | 6.1 | 0.00 | 0.28 | 0.28 | 70 | |
| 20260507054106 | 35 | 329 | 2.6 | 6.1 | 0.00 | 0.28 | 0.28 | 69 | |
| 20260507053606 | 35 | 305 | 4.3 | 7.8 | 0.00 | 0.28 | 0.28 | 70 | |
| 20260507053106 | 34 | 278 | 1.7 | 5.2 | 0.00 | 0.28 | 0.28 | 73 | |
| 20260507052606 | 34 | 298 | 3.5 | 6.1 | 0.00 | 0.28 | 0.28 | 77 | |
| 20260507052106 | 34 | 286 | 4.3 | 7.8 | 0.00 | 0.28 | 0.28 | 77 | |
| 20260507051606 | 33 | 320 | 2.6 | 3.5 | 0.00 | 0.28 | 0.28 | 84 | |
| 20260507051106 | 32 | 336 | 1.7 | 2.6 | 0.00 | 0.28 | 0.28 | 89 | |
| 20260507050606 | 32 | 319 | 1.7 | 4.3 | 0.00 | 0.28 | 0.28 | 88 | |
| 20260507050106 | 31 | 354 | 0.0 | 2.6 | 0.00 | 0.28 | 0.28 | 95 | |
| 20260507045606 | 31 | 248 | 0.0 | 0.0 | 0.00 | 0.28 | 0.28 | 95 | |
| 20260507045106 | 31 | 248 | 0.0 | 0.0 | 0.00 | 0.28 | 0.28 | 94 | |
| 20260507044606 | 31 | 248 | 0.0 | 1.7 | 0.00 | 0.28 | 0.28 | 93 |